Year,Month,Day,Hour,Minute,Value (Times are PST for temperature in C)
2011,08,22,00,00,21.70
2011,08,22,00,01,21.70
2011,08,22,00,02,21.70
2011,08,22,00,03,21.70
2011,08,22,00,04,21.70
2011,08,22,00,05,21.70
2011,08,22,00,06,21.70
2011,08,22,00,07,21.70
2011,08,22,00,08,21.70
2011,08,22,00,09,21.70
2011,08,22,00,10,21.70
2011,08,22,00,11,21.70
2011,08,22,00,12,21.70
2011,08,22,00,13,21.70
2011,08,22,00,14,21.70
2011,08,22,00,15,21.70
2011,08,22,00,16,21.80
2011,08,22,00,17,21.80
2011,08,22,00,18,21.80
2011,08,22,00,19,21.80
2011,08,22,00,20,21.80
2011,08,22,00,21,21.80
2011,08,22,00,22,21.80
2011,08,22,00,23,21.80
2011,08,22,00,24,21.90
2011,08,22,00,25,21.90
2011,08,22,00,26,21.90
2011,08,22,00,27,21.90
2011,08,22,00,28,22.00
2011,08,22,00,29,22.00
2011,08,22,00,30,22.00
2011,08,22,00,31,22.00
2011,08,22,00,32,22.00
2011,08,22,00,33,22.10
2011,08,22,00,34,22.10
2011,08,22,00,35,22.10
2011,08,22,00,36,22.10
2011,08,22,00,37,22.20
2011,08,22,00,38,22.20
2011,08,22,00,39,22.20
2011,08,22,00,40,22.20
2011,08,22,00,41,22.20
2011,08,22,00,42,22.20
2011,08,22,00,43,22.20
2011,08,22,00,44,22.20
2011,08,22,00,45,22.20
2011,08,22,00,46,22.20
2011,08,22,00,47,22.10
2011,08,22,00,48,22.10
2011,08,22,00,49,22.10
2011,08,22,00,50,22.10
2011,08,22,00,51,22.10
2011,08,22,00,52,22.10
2011,08,22,00,53,22.10
2011,08,22,00,54,22.10
2011,08,22,00,55,22.10
2011,08,22,00,56,22.10
2011,08,22,00,57,22.10
2011,08,22,00,58,22.10
2011,08,22,00,59,22.10
2011,08,22,01,00,22.10
2011,08,22,01,01,22.10
2011,08,22,01,02,22.10
2011,08,22,01,03,22.10
2011,08,22,01,04,22.00
2011,08,22,01,05,22.00
2011,08,22,01,06,22.00
2011,08,22,01,07,22.00
2011,08,22,01,08,22.00
2011,08,22,01,09,21.90
2011,08,22,01,10,21.90
2011,08,22,01,11,21.90
2011,08,22,01,12,21.90
2011,08,22,01,13,21.90
2011,08,22,01,14,21.80
2011,08,22,01,15,21.80
2011,08,22,01,16,21.80
2011,08,22,01,17,21.80
2011,08,22,01,18,21.80
2011,08,22,01,19,21.80
2011,08,22,01,20,21.70
2011,08,22,01,21,21.70
2011,08,22,01,22,21.70
2011,08,22,01,23,21.70
2011,08,22,01,24,21.70
2011,08,22,01,25,21.60
2011,08,22,01,26,21.60
2011,08,22,01,27,21.60
2011,08,22,01,28,21.60
2011,08,22,01,29,21.60
2011,08,22,01,30,21.60
2011,08,22,01,31,21.60
2011,08,22,01,32,21.50
2011,08,22,01,33,21.50
2011,08,22,01,34,21.50
2011,08,22,01,35,21.50
2011,08,22,01,36,21.50
2011,08,22,01,37,21.50
2011,08,22,01,38,21.50
2011,08,22,01,39,21.40
2011,08,22,01,40,21.40
2011,08,22,01,41,21.40
2011,08,22,01,42,21.40
2011,08,22,01,43,21.40
2011,08,22,01,44,21.40
2011,08,22,01,45,21.40
2011,08,22,01,46,21.40
2011,08,22,01,47,21.40
2011,08,22,01,48,21.40
2011,08,22,01,49,21.40
2011,08,22,01,50,21.40
2011,08,22,01,51,21.30
2011,08,22,01,52,21.30
2011,08,22,01,53,21.30
2011,08,22,01,54,21.30
2011,08,22,01,55,21.30
2011,08,22,01,56,21.30
2011,08,22,01,57,21.40
2011,08,22,01,58,21.40
2011,08,22,01,59,21.40
2011,08,22,02,00,21.40
2011,08,22,02,01,21.40
2011,08,22,02,02,21.40
2011,08,22,02,03,21.40
2011,08,22,02,04,21.40
2011,08,22,02,05,21.40
2011,08,22,02,06,21.40
2011,08,22,02,07,21.40
2011,08,22,02,08,21.40
2011,08,22,02,09,21.40
2011,08,22,02,10,21.40
2011,08,22,02,11,21.40
2011,08,22,02,12,21.40
2011,08,22,02,13,21.40
2011,08,22,02,14,21.40
2011,08,22,02,15,21.40
2011,08,22,02,16,21.40
2011,08,22,02,17,21.40
2011,08,22,02,18,21.40
2011,08,22,02,19,21.40
2011,08,22,02,20,21.40
2011,08,22,02,21,21.40
2011,08,22,02,22,21.40
2011,08,22,02,23,21.50
2011,08,22,02,24,21.50
2011,08,22,02,25,21.50
2011,08,22,02,26,21.50
2011,08,22,02,27,21.50
2011,08,22,02,28,21.50
2011,08,22,02,29,21.50
2011,08,22,02,30,21.50
2011,08,22,02,31,21.50
2011,08,22,02,32,21.50
2011,08,22,02,33,21.50
2011,08,22,02,34,21.50
2011,08,22,02,35,21.50
2011,08,22,02,36,21.50
2011,08,22,02,37,21.50
2011,08,22,02,38,21.60
2011,08,22,02,39,21.60
2011,08,22,02,40,21.60
2011,08,22,02,41,21.60
2011,08,22,02,42,21.60
2011,08,22,02,43,21.60
2011,08,22,02,44,21.60
2011,08,22,02,45,21.60
2011,08,22,02,46,21.60
2011,08,22,02,47,21.60
2011,08,22,02,48,21.60
2011,08,22,02,49,21.60
2011,08,22,02,50,21.60
2011,08,22,02,51,21.60
2011,08,22,02,52,21.60
2011,08,22,02,53,21.60
2011,08,22,02,54,21.60
2011,08,22,02,55,21.60
2011,08,22,02,56,21.60
2011,08,22,02,57,21.60
2011,08,22,02,58,21.60
2011,08,22,02,59,21.60
2011,08,22,03,00,21.60
2011,08,22,03,01,21.60
2011,08,22,03,06,21.60
2011,08,22,03,07,21.60
2011,08,22,03,08,21.60
2011,08,22,03,09,21.60
2011,08,22,03,10,21.60
2011,08,22,03,11,21.60
2011,08,22,03,12,21.50
2011,08,22,03,13,21.50
2011,08,22,03,14,21.50
2011,08,22,03,15,21.50
2011,08,22,03,16,21.50
2011,08,22,03,17,21.40
2011,08,22,03,18,21.40
2011,08,22,03,19,21.40
2011,08,22,03,20,21.40
2011,08,22,03,21,21.40
2011,08,22,03,22,21.40
2011,08,22,03,23,21.40
2011,08,22,03,24,21.40
2011,08,22,03,25,21.40
2011,08,22,03,26,21.40
2011,08,22,03,27,21.30
2011,08,22,03,28,21.30
2011,08,22,03,29,21.30
2011,08,22,03,30,21.30
2011,08,22,03,31,21.30
2011,08,22,03,32,21.30
2011,08,22,03,33,21.20
2011,08,22,03,34,21.20
2011,08,22,03,35,21.20
2011,08,22,03,36,21.20
2011,08,22,03,37,21.20
2011,08,22,03,38,21.20
2011,08,22,03,39,21.20
2011,08,22,03,40,21.20
2011,08,22,03,41,21.20
2011,08,22,03,42,21.20
2011,08,22,03,43,21.20
2011,08,22,03,44,21.20
2011,08,22,03,45,21.20
2011,08,22,03,46,21.20
2011,08,22,03,47,21.30
2011,08,22,03,48,21.30
2011,08,22,03,49,21.30
2011,08,22,03,50,21.30
2011,08,22,03,51,21.30
2011,08,22,03,52,21.30
2011,08,22,03,53,21.30
2011,08,22,03,54,21.30
2011,08,22,03,55,21.30
2011,08,22,03,56,21.30
2011,08,22,03,57,21.30
2011,08,22,03,58,21.30
2011,08,22,03,59,21.40
2011,08,22,04,00,21.40
2011,08,22,04,01,21.40
2011,08,22,04,02,21.40
2011,08,22,04,03,21.40
2011,08,22,04,04,21.40
2011,08,22,04,05,21.40
2011,08,22,04,06,21.40
2011,08,22,04,07,21.40
2011,08,22,04,08,21.40
2011,08,22,04,09,21.40
2011,08,22,04,10,21.40
2011,08,22,04,11,21.30
2011,08,22,04,12,21.30
2011,08,22,04,13,21.30
2011,08,22,04,14,21.30
2011,08,22,04,15,21.30
2011,08,22,04,16,21.30
2011,08,22,04,17,21.30
2011,08,22,04,18,21.30
2011,08,22,04,19,21.30
2011,08,22,04,20,21.30
2011,08,22,04,21,21.30
2011,08,22,04,22,21.20
2011,08,22,04,23,21.20
2011,08,22,04,24,21.20
2011,08,22,04,25,21.20
2011,08,22,04,26,21.10
2011,08,22,04,27,21.10
2011,08,22,04,28,21.10
2011,08,22,04,29,21.00
2011,08,22,04,30,21.00
2011,08,22,04,31,20.90
2011,08,22,04,32,20.90
2011,08,22,04,33,20.90
2011,08,22,04,34,20.90
2011,08,22,04,35,20.90
2011,08,22,04,36,20.90
2011,08,22,04,37,20.90
2011,08,22,04,38,20.90
2011,08,22,04,39,20.90
2011,08,22,04,40,20.90
2011,08,22,04,41,20.90
2011,08,22,04,42,20.90
2011,08,22,04,43,20.90
2011,08,22,04,44,20.90
2011,08,22,04,45,20.90
2011,08,22,04,46,20.90
2011,08,22,04,47,20.80
2011,08,22,04,48,20.80
2011,08,22,04,49,20.80
2011,08,22,04,50,20.80
2011,08,22,04,51,20.80
2011,08,22,04,52,20.80
2011,08,22,04,53,20.80
2011,08,22,04,54,20.80
2011,08,22,04,55,20.70
2011,08,22,04,56,20.70
2011,08,22,04,57,20.70
2011,08,22,04,58,20.70
2011,08,22,04,59,20.60
2011,08,22,05,00,20.60
2011,08,22,05,01,20.60
2011,08,22,05,02,20.60
2011,08,22,05,03,20.50
2011,08,22,05,04,20.50
2011,08,22,05,05,20.50
2011,08,22,05,06,20.40
2011,08,22,05,07,20.40
2011,08,22,05,08,20.40
2011,08,22,05,09,20.40
2011,08,22,05,10,20.30
2011,08,22,05,11,20.30
2011,08,22,05,12,20.30
2011,08,22,05,13,20.30
2011,08,22,05,14,20.30
2011,08,22,05,15,20.30
2011,08,22,05,16,20.20
2011,08,22,05,17,20.20
2011,08,22,05,18,20.20
2011,08,22,05,19,20.20
2011,08,22,05,20,20.20
2011,08,22,05,21,20.20
2011,08,22,05,22,20.20
2011,08,22,05,23,20.20
2011,08,22,05,24,20.20
2011,08,22,05,25,20.20
2011,08,22,05,26,20.20
2011,08,22,05,27,20.20
2011,08,22,05,28,20.20
2011,08,22,05,29,20.20
2011,08,22,05,30,20.10
2011,08,22,05,31,20.10
2011,08,22,05,32,20.10
2011,08,22,05,33,20.10
2011,08,22,05,34,20.10
2011,08,22,05,35,20.10
2011,08,22,05,36,20.00
2011,08,22,05,37,20.00
2011,08,22,05,38,20.00
2011,08,22,05,39,19.90
2011,08,22,05,40,19.90
2011,08,22,05,41,19.80
2011,08,22,05,42,19.80
2011,08,22,05,43,19.80
2011,08,22,05,44,19.70
2011,08,22,05,45,19.60
2011,08,22,05,46,19.60
2011,08,22,05,47,19.50
2011,08,22,05,48,19.40
2011,08,22,05,49,19.40
2011,08,22,05,50,19.30
2011,08,22,05,51,19.30
2011,08,22,05,52,19.30
2011,08,22,05,53,19.20
2011,08,22,05,54,19.20
2011,08,22,05,55,19.20
2011,08,22,05,56,19.20
2011,08,22,05,57,19.20
2011,08,22,05,58,19.20
2011,08,22,05,59,19.10
2011,08,22,06,00,19.10
2011,08,22,06,01,19.10
2011,08,22,06,02,19.10
2011,08,22,06,03,19.00
2011,08,22,06,04,19.00
2011,08,22,06,05,18.90
2011,08,22,06,06,18.90
2011,08,22,06,07,18.80
2011,08,22,06,08,18.80
2011,08,22,06,09,18.70
2011,08,22,06,10,18.70
2011,08,22,06,11,18.60
2011,08,22,06,12,18.60
2011,08,22,06,13,18.50
2011,08,22,06,14,18.50
2011,08,22,06,15,18.40
2011,08,22,06,16,18.40
2011,08,22,06,17,18.30
2011,08,22,06,18,18.30
2011,08,22,06,19,18.30
2011,08,22,06,20,18.20
2011,08,22,06,21,18.20
2011,08,22,06,22,18.20
2011,08,22,06,23,18.20
2011,08,22,06,24,18.20
2011,08,22,06,25,18.20
2011,08,22,06,26,18.20
2011,08,22,06,27,18.10
2011,08,22,06,28,18.10
2011,08,22,06,29,18.10
2011,08,22,06,30,18.10
2011,08,22,06,31,18.10
2011,08,22,06,32,18.10
2011,08,22,06,33,18.10
2011,08,22,06,34,18.10
2011,08,22,06,35,18.00
2011,08,22,06,36,18.00
2011,08,22,06,37,18.00
2011,08,22,06,38,18.00
2011,08,22,06,39,17.90
2011,08,22,06,40,17.90
2011,08,22,06,41,17.90
2011,08,22,06,42,17.90
2011,08,22,06,43,17.90
2011,08,22,06,44,17.90
2011,08,22,06,45,17.90
2011,08,22,06,46,17.90
2011,08,22,06,47,17.90
2011,08,22,06,48,17.90
2011,08,22,06,49,17.80
2011,08,22,06,50,17.90
2011,08,22,06,51,17.90
2011,08,22,06,52,17.80
2011,08,22,06,53,17.90
2011,08,22,06,54,17.90
2011,08,22,06,55,17.90
2011,08,22,06,56,17.90
2011,08,22,06,57,17.90
2011,08,22,06,58,17.90
2011,08,22,06,59,17.80
2011,08,22,07,00,17.90
2011,08,22,07,01,17.80
2011,08,22,07,02,17.80
2011,08,22,07,03,17.80
2011,08,22,07,04,17.80
2011,08,22,07,05,17.80
2011,08,22,07,06,17.80
2011,08,22,07,07,17.80
2011,08,22,07,08,17.80
2011,08,22,07,09,17.80
2011,08,22,07,10,17.80
2011,08,22,07,11,17.80
2011,08,22,07,12,17.80
2011,08,22,07,13,17.80
2011,08,22,07,14,17.80
2011,08,22,07,15,17.80
2011,08,22,07,16,17.80
2011,08,22,07,17,17.80
2011,08,22,07,18,17.80
2011,08,22,07,19,17.80
2011,08,22,07,20,17.80
2011,08,22,07,21,17.80
2011,08,22,07,22,17.80
2011,08,22,07,23,17.80
2011,08,22,07,24,17.80
2011,08,22,07,25,17.80
2011,08,22,07,26,17.80
2011,08,22,07,27,17.80
2011,08,22,07,28,17.80
2011,08,22,07,29,17.80
2011,08,22,07,30,17.80
2011,08,22,07,31,17.80
2011,08,22,07,32,17.80
2011,08,22,07,33,17.80
2011,08,22,07,34,17.80
2011,08,22,07,35,17.80
2011,08,22,07,36,17.80
2011,08,22,07,37,17.80
2011,08,22,07,38,17.80
2011,08,22,07,39,17.80
2011,08,22,07,40,17.80
2011,08,22,07,41,17.80
2011,08,22,07,42,17.80
2011,08,22,07,43,17.80
2011,08,22,07,44,17.80
2011,08,22,07,45,17.80
2011,08,22,07,46,17.80
2011,08,22,07,47,17.80
2011,08,22,07,48,17.80
2011,08,22,07,49,17.80
2011,08,22,07,50,17.70
2011,08,22,07,51,17.70
2011,08,22,07,52,17.70
2011,08,22,07,53,17.70
2011,08,22,07,54,17.70
2011,08,22,07,55,17.70
2011,08,22,07,56,17.70
2011,08,22,07,57,17.70
2011,08,22,07,58,17.70
2011,08,22,07,59,17.70
2011,08,22,08,00,17.70
2011,08,22,08,01,17.70
2011,08,22,08,02,17.70
2011,08,22,08,03,17.70
2011,08,22,08,04,17.70
2011,08,22,08,05,17.70
2011,08,22,08,06,17.70
2011,08,22,08,07,17.70
2011,08,22,08,08,17.70
2011,08,22,08,09,17.70
2011,08,22,08,10,17.70
2011,08,22,08,11,17.70
2011,08,22,08,12,17.70
2011,08,22,08,13,17.60
2011,08,22,08,14,17.60
2011,08,22,08,15,17.60
2011,08,22,08,16,17.60
2011,08,22,08,17,17.60
2011,08,22,08,18,17.60
2011,08,22,08,19,17.60
2011,08,22,08,20,17.60
2011,08,22,08,21,17.60
2011,08,22,08,22,17.60
2011,08,22,08,23,17.60
2011,08,22,08,24,17.60
2011,08,22,08,25,17.60
2011,08,22,08,26,17.60
2011,08,22,08,27,17.60
2011,08,22,08,28,17.60
2011,08,22,08,29,17.60
2011,08,22,08,30,17.60
2011,08,22,08,31,17.60
2011,08,22,08,32,17.60
2011,08,22,08,33,17.60
2011,08,22,08,34,17.60
2011,08,22,08,35,17.60
2011,08,22,08,36,17.60
2011,08,22,08,37,17.60
2011,08,22,08,38,17.60
2011,08,22,08,39,17.60
2011,08,22,08,40,17.60
2011,08,22,08,41,17.60
2011,08,22,08,42,17.60
2011,08,22,08,43,17.60
2011,08,22,08,44,17.60
2011,08,22,08,45,17.60
2011,08,22,08,46,17.60
2011,08,22,08,47,17.60
2011,08,22,08,48,17.60
2011,08,22,08,49,17.60
2011,08,22,08,50,17.60
2011,08,22,08,51,17.60
2011,08,22,08,52,17.60
2011,08,22,08,53,17.60
2011,08,22,08,54,17.60
2011,08,22,08,55,17.70
2011,08,22,08,56,17.70
2011,08,22,08,57,17.70
2011,08,22,08,58,17.70
2011,08,22,08,59,17.60
2011,08,22,09,00,17.60
2011,08,22,09,01,17.70
2011,08,22,09,02,17.60
2011,08,22,09,03,17.60
2011,08,22,09,04,17.60
2011,08,22,09,05,17.60
2011,08,22,09,06,17.70
2011,08,22,09,07,17.70
2011,08,22,09,08,17.70
2011,08,22,09,09,17.70
2011,08,22,09,10,17.70
2011,08,22,09,11,17.70
2011,08,22,09,12,17.70
2011,08,22,09,13,17.70
2011,08,22,09,14,17.70
2011,08,22,09,15,17.70
2011,08,22,09,16,17.80
2011,08,22,09,17,17.80
2011,08,22,09,18,17.80
2011,08,22,09,19,17.80
2011,08,22,09,20,17.80
2011,08,22,09,21,17.80
2011,08,22,09,22,17.80
2011,08,22,09,23,17.80
2011,08,22,09,24,17.80
2011,08,22,09,25,17.80
2011,08,22,09,26,17.80
2011,08,22,09,27,17.80
2011,08,22,09,28,17.80
2011,08,22,09,29,17.80
2011,08,22,09,30,17.80
2011,08,22,09,31,17.80
2011,08,22,09,32,17.80
2011,08,22,09,33,17.80
2011,08,22,09,34,17.80
2011,08,22,09,35,17.80
2011,08,22,09,36,17.80
2011,08,22,09,37,17.80
2011,08,22,09,38,17.80
2011,08,22,09,39,17.80
2011,08,22,09,40,17.80
2011,08,22,09,41,17.80
2011,08,22,09,42,17.80
2011,08,22,09,43,17.80
2011,08,22,09,44,17.80
2011,08,22,09,45,17.80
2011,08,22,09,46,17.90
2011,08,22,09,47,17.90
2011,08,22,09,48,17.90
2011,08,22,09,49,17.90
2011,08,22,09,50,17.90
2011,08,22,09,51,18.00
2011,08,22,09,52,18.00
2011,08,22,09,53,18.00
2011,08,22,09,54,18.10
2011,08,22,09,55,18.10
2011,08,22,09,56,18.10
2011,08,22,09,57,18.10
2011,08,22,09,58,18.10
2011,08,22,09,59,18.10
2011,08,22,10,00,18.10
2011,08,22,10,01,18.10
2011,08,22,10,02,18.20
2011,08,22,10,03,18.20
2011,08,22,10,04,18.20
2011,08,22,10,05,18.20
2011,08,22,10,06,18.20
2011,08,22,10,07,18.20
2011,08,22,10,08,18.20
2011,08,22,10,09,18.20
2011,08,22,10,10,18.10
2011,08,22,10,11,18.10
2011,08,22,10,12,18.10
2011,08,22,10,13,18.10
2011,08,22,10,14,18.10
2011,08,22,10,15,18.10
2011,08,22,10,16,18.10
2011,08,22,10,17,18.10
2011,08,22,10,18,18.10
2011,08,22,10,19,18.10
2011,08,22,10,20,18.10
2011,08,22,10,21,18.10
2011,08,22,10,22,18.10
2011,08,22,10,23,18.10
2011,08,22,10,24,18.10
2011,08,22,10,25,18.10
2011,08,22,10,26,18.20
2011,08,22,10,27,18.20
2011,08,22,10,28,18.20
2011,08,22,10,29,18.10
2011,08,22,10,30,18.10
2011,08,22,10,31,18.10
2011,08,22,10,32,18.10
2011,08,22,10,33,18.10
2011,08,22,10,34,18.10
2011,08,22,10,35,18.10
2011,08,22,10,36,18.10
2011,08,22,10,37,18.10
2011,08,22,10,38,18.10
2011,08,22,10,39,18.10
2011,08,22,10,40,18.10
2011,08,22,10,41,18.10
2011,08,22,10,42,18.10
2011,08,22,10,43,18.10
2011,08,22,10,44,18.10
2011,08,22,10,45,18.10
2011,08,22,10,46,18.10
2011,08,22,10,47,18.10
2011,08,22,10,48,18.10
2011,08,22,10,49,18.10
2011,08,22,10,50,18.10
2011,08,22,10,51,18.10
2011,08,22,10,52,18.10
2011,08,22,10,53,18.10
2011,08,22,10,54,18.10
2011,08,22,10,55,18.10
2011,08,22,10,56,18.10
2011,08,22,10,57,18.10
2011,08,22,10,58,18.10
2011,08,22,10,59,18.10
2011,08,22,11,00,18.10
2011,08,22,11,01,18.10
2011,08,22,11,02,18.00
2011,08,22,11,03,18.10
2011,08,22,11,04,18.00
2011,08,22,11,05,18.00
2011,08,22,11,06,18.00
2011,08,22,11,07,18.00
2011,08,22,11,08,18.00
2011,08,22,11,09,18.00
2011,08,22,11,10,18.00
2011,08,22,11,11,18.00
2011,08,22,11,12,18.00
2011,08,22,11,13,18.00
2011,08,22,11,14,18.00
2011,08,22,11,15,18.10
2011,08,22,11,16,18.10
2011,08,22,11,17,18.10
2011,08,22,11,18,18.10
2011,08,22,11,19,18.00
2011,08,22,11,20,18.10
2011,08,22,11,21,18.10
2011,08,22,11,22,18.10
2011,08,22,11,23,18.10
2011,08,22,11,24,18.10
2011,08,22,11,25,18.10
2011,08,22,11,26,18.10
2011,08,22,11,27,18.10
2011,08,22,11,28,18.10
2011,08,22,11,29,18.10
2011,08,22,11,30,18.10
2011,08,22,11,31,18.10
2011,08,22,11,32,18.10
2011,08,22,11,33,18.10
2011,08,22,11,34,18.20
2011,08,22,11,35,18.20
2011,08,22,11,36,18.20
2011,08,22,11,37,18.20
2011,08,22,11,38,18.20
2011,08,22,11,39,18.30
2011,08,22,11,40,18.30
2011,08,22,11,41,18.30
2011,08,22,11,42,18.30
2011,08,22,11,43,18.30
2011,08,22,11,44,18.30
2011,08,22,11,45,18.30
2011,08,22,11,46,18.40
2011,08,22,11,47,18.40
2011,08,22,11,48,18.50
2011,08,22,11,49,18.60
2011,08,22,11,50,18.70
2011,08,22,11,51,18.70
2011,08,22,11,52,18.80
2011,08,22,11,53,18.80
2011,08,22,11,54,18.80
2011,08,22,11,55,18.90
2011,08,22,11,56,18.90
2011,08,22,11,57,18.90
2011,08,22,11,58,18.90
2011,08,22,11,59,18.90
2011,08,22,12,00,19.00
2011,08,22,12,01,19.00
2011,08,22,12,02,19.00
2011,08,22,12,03,19.00
2011,08,22,12,04,19.10
2011,08,22,12,05,19.10
2011,08,22,12,06,19.10
2011,08,22,12,07,19.10
2011,08,22,12,08,19.10
2011,08,22,12,09,19.10
2011,08,22,12,10,19.10
2011,08,22,12,11,19.10
2011,08,22,12,12,19.10
2011,08,22,12,13,19.10
2011,08,22,12,14,19.10
2011,08,22,12,15,19.10
2011,08,22,12,16,19.10
2011,08,22,12,17,19.10
2011,08,22,12,18,19.10
2011,08,22,12,19,19.10
2011,08,22,12,20,19.20
2011,08,22,12,21,19.20
2011,08,22,12,22,19.20
2011,08,22,12,23,19.20
2011,08,22,12,24,19.20
2011,08,22,12,25,19.20
2011,08,22,12,26,19.30
2011,08,22,12,27,19.30
2011,08,22,12,28,19.30
2011,08,22,12,29,19.30
2011,08,22,12,30,19.40
2011,08,22,12,31,19.40
2011,08,22,12,32,19.50
2011,08,22,12,33,19.60
2011,08,22,12,34,19.60
2011,08,22,12,35,19.70
2011,08,22,12,36,19.70
2011,08,22,12,37,19.80
2011,08,22,12,38,19.80
2011,08,22,12,39,19.80
2011,08,22,12,40,19.80
2011,08,22,12,41,19.90
2011,08,22,12,42,19.90
2011,08,22,12,43,19.90
2011,08,22,12,44,19.90
2011,08,22,12,45,19.90
2011,08,22,12,46,19.90
2011,08,22,12,47,19.90
2011,08,22,12,48,19.90
2011,08,22,12,49,20.00
2011,08,22,12,50,20.00
2011,08,22,12,51,20.10
2011,08,22,12,52,20.10
2011,08,22,12,53,20.10
2011,08,22,12,54,20.20
2011,08,22,12,55,20.20
2011,08,22,12,56,20.20
2011,08,22,12,57,20.20
2011,08,22,12,58,20.20
2011,08,22,12,59,20.20
2011,08,22,13,00,20.30
2011,08,22,13,01,20.30
2011,08,22,13,02,20.30
2011,08,22,13,03,20.30
2011,08,22,13,04,20.30
2011,08,22,13,05,20.30
2011,08,22,13,06,20.30
2011,08,22,13,07,20.30
2011,08,22,13,08,20.30
2011,08,22,13,09,20.30
2011,08,22,13,10,20.30
2011,08,22,13,11,20.30
2011,08,22,13,12,20.20
2011,08,22,13,13,20.20
2011,08,22,13,14,20.20
2011,08,22,13,15,20.20
2011,08,22,13,16,20.20
2011,08,22,13,17,20.20
2011,08,22,13,18,20.20
2011,08,22,13,19,20.30
2011,08,22,13,20,20.30
2011,08,22,13,21,20.30
2011,08,22,13,22,20.30
2011,08,22,13,23,20.30
2011,08,22,13,24,20.30
2011,08,22,13,25,20.30
2011,08,22,13,26,20.30
2011,08,22,13,27,20.30
2011,08,22,13,28,20.30
2011,08,22,13,29,20.30
2011,08,22,13,30,20.30
2011,08,22,13,31,20.30
2011,08,22,13,32,20.30
2011,08,22,13,33,20.30
2011,08,22,13,34,20.30
2011,08,22,13,35,20.30
2011,08,22,13,36,20.30
2011,08,22,13,37,20.30
2011,08,22,13,38,20.30
2011,08,22,13,39,20.30
2011,08,22,13,40,20.30
2011,08,22,13,41,20.30
2011,08,22,13,42,20.30
2011,08,22,13,43,20.20
2011,08,22,13,44,20.10
2011,08,22,13,45,20.00
2011,08,22,13,46,19.90
2011,08,22,13,47,19.80
2011,08,22,13,48,19.70
2011,08,22,13,49,19.70
2011,08,22,13,50,19.60
2011,08,22,13,51,19.50
2011,08,22,13,52,19.50
2011,08,22,13,53,19.40
2011,08,22,13,54,19.40
2011,08,22,13,55,19.30
2011,08,22,13,56,19.30
2011,08,22,13,57,19.30
2011,08,22,13,58,19.30
2011,08,22,13,59,19.30
2011,08,22,14,00,19.20
2011,08,22,14,01,19.20
2011,08,22,14,02,19.20
2011,08,22,14,03,19.20
2011,08,22,14,04,19.20
2011,08,22,14,05,19.30
2011,08,22,14,06,19.30
2011,08,22,14,07,19.30
2011,08,22,14,08,19.30
2011,08,22,14,09,19.40
2011,08,22,14,10,19.40
2011,08,22,14,11,19.40
2011,08,22,14,12,19.50
2011,08,22,14,13,19.60
2011,08,22,14,14,19.60
2011,08,22,14,15,19.70
2011,08,22,14,16,19.70
2011,08,22,14,17,19.80
2011,08,22,14,18,19.90
2011,08,22,14,19,20.00
2011,08,22,14,20,20.10
2011,08,22,14,21,20.20
2011,08,22,14,22,20.30
2011,08,22,14,23,20.40
2011,08,22,14,24,20.50
2011,08,22,14,25,20.60
2011,08,22,14,26,20.70
2011,08,22,14,27,20.80
2011,08,22,14,28,20.90
2011,08,22,14,29,21.10
2011,08,22,14,30,21.20
2011,08,22,14,31,21.30
2011,08,22,14,32,21.40
2011,08,22,14,33,21.50
2011,08,22,14,34,21.60
2011,08,22,14,35,21.70
2011,08,22,14,36,21.80
2011,08,22,14,37,21.80
2011,08,22,14,38,21.80
2011,08,22,14,39,21.90
2011,08,22,14,40,21.90
2011,08,22,14,41,22.00
2011,08,22,14,42,22.10
2011,08,22,14,43,22.10
2011,08,22,14,44,22.20
2011,08,22,14,45,22.20
2011,08,22,14,46,22.30
2011,08,22,14,47,22.30
2011,08,22,14,48,22.40
2011,08,22,14,49,22.40
2011,08,22,14,50,22.50
2011,08,22,14,51,22.60
2011,08,22,14,52,22.60
2011,08,22,14,53,22.70
2011,08,22,14,54,22.70
2011,08,22,14,55,22.70
2011,08,22,14,56,22.60
2011,08,22,14,57,22.40
2011,08,22,14,58,22.20
2011,08,22,14,59,22.00
2011,08,22,15,00,21.70
2011,08,22,15,01,21.50
2011,08,22,15,02,21.40
2011,08,22,15,03,21.30
2011,08,22,15,04,21.20
2011,08,22,15,05,21.10
2011,08,22,15,06,21.00
2011,08,22,15,07,21.00
2011,08,22,15,08,20.90
2011,08,22,15,09,20.90
2011,08,22,15,10,20.80
2011,08,22,15,11,20.70
2011,08,22,15,12,20.70
2011,08,22,15,13,20.60
2011,08,22,15,14,20.60
2011,08,22,15,15,20.60
2011,08,22,15,16,20.50
2011,08,22,15,17,20.50
2011,08,22,15,18,20.40
2011,08,22,15,19,20.40
2011,08,22,15,20,20.40
2011,08,22,15,21,20.30
2011,08,22,15,22,20.30
2011,08,22,15,23,20.20
2011,08,22,15,24,20.20
2011,08,22,15,25,20.20
2011,08,22,15,26,20.10
2011,08,22,15,27,20.10
2011,08,22,15,28,20.10
2011,08,22,15,29,20.10
2011,08,22,15,30,20.00
2011,08,22,15,31,20.00
2011,08,22,15,32,20.00
2011,08,22,15,33,20.00
2011,08,22,15,34,20.00
2011,08,22,15,35,20.00
2011,08,22,15,36,20.00
2011,08,22,15,37,20.00
2011,08,22,15,38,20.00
2011,08,22,15,39,20.00
2011,08,22,15,40,19.90
2011,08,22,15,41,19.90
2011,08,22,15,42,19.90
2011,08,22,15,43,19.90
2011,08,22,15,44,19.80
2011,08,22,15,45,19.80
2011,08,22,15,46,19.80
2011,08,22,15,47,19.80
2011,08,22,15,48,19.70
2011,08,22,15,49,19.70
2011,08,22,15,50,19.70
2011,08,22,15,51,19.70
2011,08,22,15,52,19.70
2011,08,22,15,53,19.70
2011,08,22,15,54,19.80
2011,08,22,15,55,19.80
2011,08,22,15,56,19.80
2011,08,22,15,57,19.80
2011,08,22,15,58,19.80
2011,08,22,15,59,19.70
2011,08,22,16,00,19.70
2011,08,22,16,01,19.70
2011,08,22,16,02,19.70
2011,08,22,16,03,19.60
2011,08,22,16,04,19.60
2011,08,22,16,05,19.50
2011,08,22,16,06,19.50
2011,08,22,16,07,19.50
2011,08,22,16,08,19.50
2011,08,22,16,09,19.50
2011,08,22,16,10,19.50
2011,08,22,16,11,19.50
2011,08,22,16,12,19.50
2011,08,22,16,13,19.50
2011,08,22,16,14,19.50
2011,08,22,16,15,19.50
2011,08,22,16,16,19.60
2011,08,22,16,17,19.60
2011,08,22,16,18,19.60
2011,08,22,16,19,19.50
2011,08,22,16,20,19.50
2011,08,22,16,21,19.50
2011,08,22,16,22,19.50
2011,08,22,16,23,19.50
2011,08,22,16,24,19.40
2011,08,22,16,25,19.40
2011,08,22,16,26,19.40
2011,08,22,16,27,19.40
2011,08,22,16,28,19.40
2011,08,22,16,29,19.30
2011,08,22,16,30,19.30
2011,08,22,16,31,19.20
2011,08,22,16,32,19.10
2011,08,22,16,33,19.10
2011,08,22,16,34,19.10
2011,08,22,16,35,19.10
2011,08,22,16,36,19.10
2011,08,22,16,37,19.20
2011,08,22,16,38,19.20
2011,08,22,16,39,19.20
2011,08,22,16,40,19.30
2011,08,22,16,41,19.30
2011,08,22,16,42,19.40
2011,08,22,16,43,19.40
2011,08,22,16,44,19.50
2011,08,22,16,45,19.60
2011,08,22,16,46,19.60
2011,08,22,16,47,19.70
2011,08,22,16,48,19.70
2011,08,22,16,49,19.70
2011,08,22,16,50,19.80
2011,08,22,16,51,19.80
2011,08,22,16,52,19.80
2011,08,22,16,53,19.80
2011,08,22,16,54,19.80
2011,08,22,16,55,19.80
2011,08,22,16,56,19.70
2011,08,22,16,57,19.70
2011,08,22,16,58,19.60
2011,08,22,16,59,19.60
2011,08,22,17,00,19.60
2011,08,22,17,01,19.50
2011,08,22,17,02,19.50
2011,08,22,17,03,19.40
2011,08,22,17,04,19.30
2011,08,22,17,05,19.30
2011,08,22,17,06,19.20
2011,08,22,17,07,19.10
2011,08,22,17,08,19.10
2011,08,22,17,09,19.10
2011,08,22,17,10,19.00
2011,08,22,17,11,19.00
2011,08,22,17,12,19.00
2011,08,22,17,13,18.90
2011,08,22,17,14,18.90
2011,08,22,17,15,18.80
2011,08,22,17,16,18.80
2011,08,22,17,17,18.70
2011,08,22,17,18,18.60
2011,08,22,17,19,18.60
2011,08,22,17,20,18.50
2011,08,22,17,21,18.40
2011,08,22,17,22,18.40
2011,08,22,17,23,18.40